Regional Weather Roundup
Issued by NWS

Home | Current Version | Previous Version | Graphics & Text | Print | Product List | Glossary On
Versions: 1 2 3 4 5 6 7 8 9 10 11 12 13 14 15 16 17 18 19 20 21 22 23 24 25 26 27 28 29 30 31 32 33 34 35 36 37 38 39 40 41 42 43 44 45 46 47 48 49 50
000
ASUS45 KTFX 221004
RWRMT
MONTANA HOURLY WEATHER ROUNDUP
NATIONAL WEATHER SERVICE GREAT FALLS MT
404 AM MDT TUE APR 22 2014

NOTE: "FAIR" INDICATES FEW OR NO CLOUDS BELOW 12000 FEET WITH NO
SIGNIFICANT WEATHER AND/OR OBSTRUCTIONS TO VISIBILITY.

* THESE STATIONS ARE NOT UNDER NWS QUALITY CONTROL. THEY DO NOT
   REPORT WEATHER SUCH AS PRECIPITATION OR FOG.

MTZ001>007-043-221100-
WEST OF THE DIVIDE
CITY           SKY/WX    TMP DP  RH WIND       PRES   REMARKS
KALISPELL      PTCLDY    37  30  76 SW5       29.73F WCI  33
MISSOULA       PTCLDY    46  28  50 SE9       29.75F
BUTTE          CLOUDY    39  27  62 SE3       29.83F
MULLAN PASS    CLOUDY    43  25  49 SE10G22   29.74F
* ESSEX        N/A       37  27  67 SE11G17    N/A   WCI  29
* LINCOLN      N/A       34  28  79 SW1        N/A
* LOOKOUT PASS N/A       36  29  76 SE3        N/A
* POLSON       N/A       43  29  58 NE3        N/A
* SEELEY LAKE  N/A       34  27  76 NE1        N/A
* THOMP F APT  MOCLDY    48  33  56 SE7G24     N/A
* YAAK HILL    N/A       40  35  82 N/A        N/A
$$

MTZ008-052>055-221100-
SOUTHWEST MONTANA
CITY           SKY/WX    TMP DP  RH WIND       PRES   REMARKS
BOZEMAN        CLOUDY    50  27  41 S9        29.81F
DILLON         CLOUDY    52  21  30 W7        29.80F
W YELLOWSTONE  N/A       43  33  68 E3G10      N/A
* THREE FORKS  CLOUDY    48  30  50 N/A        N/A
* BOULDER HILL N/A       44  20  38 SW7        N/A
* MONIDA PASS  N/A       46  31  56 SE17       N/A
* RAYNOLDS PAS N/A       44  25  47 SE19G28    N/A
* WHITEHALL    N/A       47  25  42 NW5G10     N/A
* WISE RIVER   N/A       37  25  62 SW2        N/A
$$

MTZ009>010-012-014-046-048-049-054-221100-
EAST SLOPES AND CENTRAL MONTANA
CITY           SKY/WX    TMP DP  RH WIND       PRES   REMARKS
CUT BANK       PTCLDY    34  25  70 NW9       29.77F WCI  27
GREAT FALLS    MOCLDY    48  25  41 S9        29.76F
HELENA         CLOUDY    46  27  48 CALM      29.78F
MALMSTROM AFB  MOCLDY    46  27  48 S9        29.74F
* CONRAD       MOCLDY    37  25  62 N/A        N/A
* DEARBORN     N/A       39  28  65 SW2        N/A
* EAST GLACIER N/A       39  23  53 W1         N/A
* MONARCH      N/A       49  18  29 S9         N/A
* PENDROY      N/A       45  24  44 VRB6       N/A
* ROGERS PASS  N/A       41  23  49 N1         N/A
* SAINT MARY   N/A       31  26  82 S3         N/A
* SWEET GRASS  N/A       46  20  36 S14        N/A
$$

MTZ011-013-016-021-035-040-045-047-050-051-221100-
NORTH CENTRAL MONTANA
CITY           SKY/WX    TMP DP  RH WIND       PRES   REMARKS
HAVRE          MOCLDY    61  21  21 NE3       29.77F
LEWISTOWN      CLOUDY    52  23  32 E12       29.82F
* CHESTER      N/A       49  23  36 SE9G14     N/A
* DENTON       N/A       47  24  40 S12        N/A
* GEYSER       N/A       45  20  37 SW7        N/A
* JUDITH GAP   N/A       43  22  43 SW7        N/A
* LOMA         N/A       51  25  36 NE12       N/A
$$

MTZ017>020-022>027-061-062-221100-
NORTHEAST MONTANA
CITY           SKY/WX    TMP DP  RH WIND       PRES   REMARKS
GLASGOW        CLOUDY    46  28  50 E16       29.89F
JORDAN         CLOUDY    48  27  44 E9        29.88F
SIDNEY         CLOUDY    45  30  56 SW5       30.00F
WOLF POINT     CLOUDY    46  30  54 NE8       29.94F
* BEAVER HILL  N/A       41  32  70 E16        N/A
* CIRCLE       N/A       46  28  50 N/A        N/A
* LINDSAY DVD  N/A       37  26  64 E6         N/A   WCI  32
* NAVAJO       N/A       40  30  68 E7         N/A   WCI  35
* SACO         N/A       44  25  47 NE11       N/A
$$

MTZ028>042-056>058-221100-
SOUTHCENTRAL AND SOUTHEAST MONTANA
CITY           SKY/WX    TMP DP  RH WIND       PRES   REMARKS
BAKER          CLOUDY    41  30  65 E12       29.96F
BILLINGS       CLOUDY    48  28  46 N7        29.84F
LIVINGSTON     CLOUDY    43  28  56 S3        29.86S
MILES CITY     PTCLDY    48  28  46 E9        29.88F
* LAUREL APT   CLOUDY    48  27  44 N/A        N/A
* ROUNDUP APT  CLOUDY    52  23  32 N/A        N/A
* HYSHAM       N/A       54  24  31 SE5        N/A
* LAME DEER    N/A       51  29  43 S10        N/A
* REED POINT   N/A       41  34  76 N/A        N/A
* ROSCOE HILL  N/A       51  16  25 SE6        N/A
$$

REGIONAL REPORTS...DAKOTAS
CITY           SKY/WX    TMP DP  RH WIND       PRES   REMARKS
WILLISTON      CLOUDY    45  30  56 NE7       30.01F
DICKINSON      CLOUDY    37  28  70 SE10      30.01F WCI  30
CROSBY         CLEAR     32  32 100 S5        30.06S WCI  27
TIOGA          CLEAR     28  28 100 E3        30.08F
WATFORD CITY   CLEAR     37  28  70 CALM      30.00S
BISMARCK       CLEAR     30  27  89 E3        30.09F
GRAND FORKS    FOG       30  28  92 SW3       30.12R
FARGO          MOCLDY    32  30  92 CALM      30.12S
BUFFALO SD     PTCLDY    45  28  51 SE14      29.90F
RAPID CITY     PTCLDY    37  28  70 SE5       29.98F WCI  33
$$

REGIONAL REPORTS...WYOMING/IDAHO/WASHINGTON
CITY           SKY/WX    TMP DP  RH WIND       PRES   REMARKS
GILLETTE       PTCLDY    45  30  56 S10       29.92F
SHERIDAN       MOCLDY    45  37  74 NE5       29.87F
CODY           MOCLDY    46  28  50 S7        29.91S
YELLOWSTONE LA CLOUDY    36  34  92 CALM      30.08F
SALMON         CLOUDY    43  27  53 SE3       29.76F
MULLAN PASS    CLOUDY    43  25  49 SE10G22   29.74S
SPOKANE        CLOUDY    50  36  59 E8        29.66F

$$




USA.gov is the U.S. government's official web portal to all federal, state and local government web resources and services.